Regional Weather Roundup
Issued by NWS Upton, NY

Current Version | Previous Version | Text Only | Print | Product List | Glossary On
Versions: 1 2 3 4 5 6 7 8 9 10 11 12 13 14 15 16 17 18 19 20 21 22 23 24 25 26 27 28 29 30 31 32 33 34 35 36 37 38 39 40 41 42 43 44 45 46 47 48 49 50
000
ASUS41 KOKX 130204
RWROKX

REGIONAL WEATHER ROUNDUP
NATIONAL WEATHER SERVICE NEW YORK NY
900 PM EST FRI FEB 12 2016

NOTE: "FAIR" INDICATES FEW OR NO CLOUDS BELOW 12,000 FEET WITH NO
SIGNIFICANT WEATHER AND/OR OBSTRUCTIONS TO VISIBILITY.

NYZ071-072-176-178-NJZ106-104-130300-
NEW YORK CITY METRO AREA


CITY           SKY/WX    TMP DP  RH WIND       PRES   REMARKS
CENTRAL PARK   CLOUDY    23   4  44 VRB3      29.98F
LAGUARDIA APRT CLOUDY    24   5  44 W10       29.97F WCI  14
KENNEDY INTL   FLURRIES  23  10  57 W14       29.98F WCI  11
NEWARK/LIBERTY CLOUDY    23   7  50 SW10      29.98F WCI  12
BRNX BOT. GARD   N/A     25   3  39 SW7       29.96F WCI  17
TETERBORO      CLOUDY    23   3  42 W10       29.97F WCI  12
$$

NYZ177-179-078>081-130300-
LONG ISLAND NEW YORK

CITY           SKY/WX    TMP DP  RH WIND       PRES   REMARKS
FARMINGDALE    CLOUDY    24   7  48 W13       29.96F WCI  12
ISLIP          CLOUDY    23  13  65 CALM      29.95F
SHIRLEY        LGT SNOW  22  13  68 NW5       29.96F WCI  16
RIVERHEAD        N/A     25   7  46 CALM      29.93F
WESTHAMPTON    CLOUDY    20  11  68 CALM      29.96F
EAST HAMPTON   CLOUDY    22  11  63 CALM      29.96F
MONTAUK POINT    N/A     24  11  57 W7        29.96F WCI  16
$$

NYZ052-065-067-130300-
HUDSON VALLEY

CITY           SKY/WX    TMP DP  RH WIND       PRES   REMARKS
WHITE PLAINS   CLOUDY    21   2  43 W5        29.93F WCI  15
NEWBURGH       CLOUDY    19   7  58 W7        29.92F WCI  10
MONTGOMERY     MOCLDY    20   5  52 SW7       29.91F WCI  11
POUGHKEEPSIE   CLOUDY    23   3  42 SW8       29.93F WCI  14
ALBANY         MOCLDY    20   3  48 S6        29.89F WCI  12
$$

NJZ001-105-106-008-010-013-015-019>022-104-130300-
NEW JERSEY

CITY           SKY/WX    TMP DP  RH WIND       PRES   REMARKS
NEWARK/LIBERTY CLOUDY    23   7  50 SW10      29.98F WCI  12
TETERBORO      CLOUDY    23   3  42 W10       29.97F WCI  12
CALDWELL       CLOUDY    22   3  44 W3        29.96F
MORRISTOWN     MOCLDY    21   7  53 W6        29.97F WCI  14
SOMERVILLE     CLOUDY    21   8  57 CALM      29.96F
SUSSEX         CLOUDY    20   6  55 SW5       29.92F WCI  13
ANDOVER          N/A     19   5  54 SW5       29.93F WCI  12
TRENTON        CLOUDY    20  13  74 SW5       29.98F WCI  13
MILLVILLE      LGT SNOW  22  19  89 CALM      30.00F FOG
ATLANTIC CITY  FLURRIES  22  14  71 NW5       30.00F WCI  16
WRIGHTSTOWN    FLURRIES  20  20  99 W6        29.96F WCI  12
TOMS RIVER     CLOUDY    21  12  68 W6        30.00F WCI  14
BELMAR         CLOUDY    21   9  58 W7        29.97F WCI  13
$$

PAZ047>061-062-071-130300-
EASTERN PENNSYLVANIA

CITY           SKY/WX    TMP DP  RH WIND       PRES   REMARKS
PHILADELPHIA   NOT AVBL
ALLENTOWN      CLOUDY    20   8  60 W9        29.96F WCI   9
SCRANTON       LGT SNOW  17   8  67 SW10      29.88F WCI   5
$$

CTZ002-004>006-009-010-012-RIZ004-006-007-MAZ004-011-015-130300-
SOUTHERN NEW ENGLAND
 IN CT

CITY           SKY/WX    TMP DP  RH WIND       PRES   REMARKS
BRADLEY INTL   CLOUDY    21   7  54 S8        29.93F WCI  11
HARTFORD       CLOUDY    23   8  52 S8        29.95F WCI  14
DANBURY        CLOUDY    19   6  57 SW3       29.94F
WTRBRY/OXFORD  MOCLDY    18   5  57 SW5       29.91F WCI  11
BRIDGEPORT     CLOUDY    22  13  68 W12       29.96F WCI  10
MERIDEN        CLOUDY    22  10  60 S5        29.95F WCI  16
NEW HAVEN      CLOUDY    23  12  62 VRB6      29.95F WCI  16
CHESTER        FLURRIES  21  14  73 MISG      29.93F
GROTON         CLOUDY    23  10  57 NW7       29.95F WCI  15
WILLIMANTIC    CLOUDY    22   7  52 S3        29.95F

 IN RI

CITY           SKY/WX    TMP DP  RH WIND       PRES   REMARKS
PROVIDENCE     CLOUDY    22   8  55 W3        29.96F
BLOCK ISLAND   CLOUDY    25  16  68 NW7       29.93F WCI  17
WESTERLY       CLOUDY    23   8  52 CALM      29.95F

 IN MA

CITY           SKY/WX    TMP DP  RH WIND       PRES   REMARKS
BOSTON         CLOUDY    22   5  48 SW12      29.96F WCI  10
WORCESTER      CLOUDY    16   3  56 SW13      29.87F WCI   2
WESTFIELD      PTCLDY    19   3  49 S7        29.92F WCI  10
PROVINCETOWN   CLOUDY    24  13  62 W8        29.97F WCI  15
NANTUCKET      CLOUDY    26  14  60 NE5       29.95F WCI  20
$$

ANZ330-335-338-340-345-350-353-355-130300-
COASTAL MARINE OBSERVATIONS


STATION/POSITION TIME  SKY/WX   TEMP    WIND        PRES    VSBY  WAVE
                                AIR SEA DIR/SP/G                  HT/PER
                 (UTC)          (F)     (DEG/KT/KT) (MB)    (MI)  (FT/S)
NY HARB ENTRANCE 0050            26 42  270/ 14/ 17 1015.1          2/ 4
4S FIRE IS       NOT AVBL
20S FIRE ISLAND  0050            26 41  240/ 10/ 14 1015.2          2/10
GREAT SOUTH BAY  NOT AVBL
23SW MTP         0150            26 45  240/ 12/ 14 1014.0          2/ 5
HUDSON CANYON    0050            29 48              1015.0          2/ 9
KINGS POINT      0100            24 36              1014.7
EXECUTION ROCKS  NOT AVBL
CENTRAL LI SOUND 0100            25     240/  8/ 12   N/A           1/ 3
EASTERN LI SOUND 0100            26 41  240/ 10/ 16   N/A
ROBBINS REEF     0100            22                 1014.7
$$


>>>>>>>>>>>>>>>>>>>>>>>>>>>> KEY <<<<<<<<<<<<<<<<<<<<<<<<<<<
>                                                          <
>     SKY/WX - SKY CONDITION/PRESENT WEATHER               <
>     TMP    - TEMPERATURE IN FAHRENHEIT                   <
>     DP     - DEWPOINT IN FAHRENHEIT                      <
>     RH     - RELATIVE HUMIDITY IN PERCENT                <
>     WIND   - DIRECTION AND SPEED IN MPH                  <
>     PRES   - MEAN SEA LEVEL PRESSURE IN INCHES OF HG     <
>     WCI    - WIND CHILL INDEX                            <
>     VSB    - VISIBILITY IN MILES                         <
>     HX     - HEAT INDEX                                  <
>     TC     - TEMPERATURE IN CELSIUS                      <
>     VRB    - VARIABLE WIND DIRECTION                     <
>                                                          <
>>>>>>>>>>>>>>>>>>>>>>>>>>>> KEY <<<<<<<<<<<<<<<<<<<<<<<<<<<





USA.gov is the U.S. government's official web portal to all federal, state and local government web resources and services.